{"data":{"norad_id":66231,"intl_designator":"2025-244AB","name":"STARLINK-35735","alt_names":[],"object_type":"PAYLOAD","status":"ACTIVE","operator":null,"country":"US","launch_date":"2025-10-28","launch_site_code":"AFWTR","launch_vehicle":null,"mission":null,"orbit_class":"UNKNOWN","rcs_meters":null,"size_class":null,"mass_kg":null,"dimensions":null,"purposes":["comms"],"wikipedia_slug":null,"has_3d_model":false,"image_url":null,"decayed_at":null,"tle_current":{"epoch":"2026-05-24T23:40:04.783872Z","epoch_age_seconds":86803,"freshness":"FRESH","line1":"1 66231U 25244AB  26144.98616648  .00021918  00000+0  74985-3 0  9996","line2":"2 66231  53.1588 235.3152 0001214  87.5013 272.6127 15.30204805 33341","mean_motion":15.30204805,"eccentricity":0.0001214,"inclination_deg":53.1588,"raan_deg":235.3152,"arg_perigee_deg":87.5013,"mean_anomaly_deg":272.6127,"bstar":0.00074985,"rev_number":3334,"period_min":94.105050206008,"perigee_km":474.36872739345,"apogee_km":476.0327177925,"semimajor_km":6853.337722593,"source":"CELESTRAK","updated_at":"2026-05-25T13:38:21.132380Z"}}}